This is the latest recevied weather packets stored in our database for station/object S56IAR-13. If no packets are shown the sender has not sent any weather packets the latest 10 day(s).
| Time | Temp. | Humidity | Pressure | Rain* | Wind** | Luminosity | Snow |
|---|---|---|---|---|---|---|---|
| 1777969804 | 17.78° C | 63% | 960.9 hPa | 0 mm | - | 301 W/m² | - |
| 1777969505 | 17.78° C | 62% | 960.8 hPa | 0 mm | - | 403 W/m² | - |
| 1777966504 | 16.67° C | 69% | 960.8 hPa | 0 mm | - | 432 W/m² | - |
| 1777965733 | 15.56° C | 70% | 960.9 hPa | 0 mm | - | 246 W/m² | - |
| 1777963505 | 14.44° C | 72% | 961.1 hPa | 0 mm | - | 163 W/m² | - |
| 1777960204 | 13.33° C | 73% | 961.1 hPa | 0 mm | - | 69 W/m² | - |
| 1777959303 | 13.33° C | 72% | 961 hPa | 0 mm | - | 110 W/m² | - |
| 1777959134 | 13.33° C | 71% | 961.1 hPa | 0 mm | - | 100 W/m² | - |
| 1777958405 | 11.67° C | 76% | 960.9 hPa | 0 mm | - | 68 W/m² | - |
| 1777957805 | 9.44° C | 92% | 960.9 hPa | 0 mm | - | 55 W/m² | - |
| 1777954336 | 6.67° C | 95% | 961.2 hPa | 0 mm | - | 15 W/m² | - |
| 1777952534 | 6.67° C | 95% | 961.2 hPa | 0 mm | - | 1 W/m² | - |
| 1777951934 | 6.67° C | 94% | 961.2 hPa | 0 mm | - | 0 W/m² | - |
| 1777950604 | 7.22° C | 93% | 961.3 hPa | 0 mm | - | 0 W/m² | - |
| 1777948634 | 7.22° C | 93% | 961.4 hPa | 0 mm | - | 0 W/m² | - |
| 1777947005 | 7.78° C | 91% | 961.9 hPa | 0 mm | - | 0 W/m² | - |
| 1777946105 | 7.78° C | 91% | 961.6 hPa | 0 mm | - | 0 W/m² | - |
| 1777943103 | 8.89° C | 87% | 962.1 hPa | 0 mm | - | 0 W/m² | - |
| 1777939035 | 10.56° C | 82% | 962.6 hPa | 0 mm | - | 0 W/m² | - |
| 1777938603 | 10.56° C | 81% | 962.6 hPa | 0 mm | - | 0 W/m² | - |
| 1777937705 | 10.56° C | 79% | 962.8 hPa | 0 mm | - | 0 W/m² | - |
| 1777934534 | 11.11° C | 78% | 963.1 hPa | 0 mm | - | 0 W/m² | - |
| 1777934104 | 11.11° C | 77% | 963.2 hPa | 0 mm | - | 0 W/m² | - |
| 1777933805 | 11.11° C | 78% | 963 hPa | 0 mm | - | 0 W/m² | - |
| 1777929905 | 10° C | 81% | 963.2 hPa | 0 mm | - | 0 W/m² | - |
* Rain latest hour (hover to see other rain measurements)
** Current wind speed in m/s (hover to see current wind gust speed)